{"data":{"norad_id":27691,"epoch":"2026-05-24T10:05:17.501280Z","epoch_age_seconds":125365,"freshness":"FRESH","line1":"1 27691U 03008A   26144.42034145 -.00000002  00000+0  00000+0 0  9997","line2":"2 27691  10.9167  43.6241 0004457 313.2462 274.6263  1.00274907  6536","mean_motion":1.00274907,"eccentricity":0.0004457,"inclination_deg":10.9167,"raan_deg":43.6241,"arg_perigee_deg":313.2462,"mean_anomaly_deg":274.6263,"bstar":0,"rev_number":653,"period_min":1436.0521920005,"perigee_km":35766.927343002,"apogee_km":35804.512204931,"semimajor_km":42163.856773966,"source":"CELESTRAK","updated_at":"2026-05-25T13:38:13.814537Z"}}